KB0OJV Weather Reports


time (UTC)temp
C
wind
direction
speed
KPH
gust
KPH
rain 1hr
cm
rain 24hr
cm
rain mn
cm
humidity
%
barometer
mb
20260505125008 4 307 8.0 19.3 0.00 0.00 0.00 50 1010.0
20260505124520 4 351 11.3 19.3 0.00 0.00 0.00 53 1009.9
20260505123503 3 349 6.4 17.7 0.00 0.00 0.00 54 1009.7
20260505123004 3 349 4.8 12.9 0.00 0.00 0.00 57 1009.6
20260505122504 3 317 3.2 12.9 0.00 0.00 0.00 57 1009.5
20260505122007 3 312 6.4 12.9 0.00 0.00 0.00 59 1009.5
20260505121518 3 9 3.2 9.7 0.00 0.00 0.00 60 1009.4
20260505121005 2 280 4.8 14.5 0.00 0.00 0.00 60 1009.2
20260505120506 2 293 6.4 14.5 0.00 0.00 0.00 60 1009.2
20260505120005 2 332 9.7 14.5 0.00 0.00 0.00 60 1009.0
20260505115007 2 288 4.8 11.3 0.00 0.00 0.00 61 1008.9
20260505114516 2 293 4.8 9.7 0.00 0.00 0.00 61 1008.9
20260505114008 2 308 3.2 19.3 0.00 0.00 0.00 61 1008.8
20260505113503 2 288 3.2 19.3 0.00 0.00 0.00 61 1008.7
20260505113016 2 319 4.8 12.9 0.00 0.00 0.00 60 1008.6
20260505112510 2 279 3.2 9.7 0.00 0.00 0.00 61 1008.5
20260505112004 2 326 3.2 9.7 0.00 0.00 0.00 61 1008.5
20260505111505 2 324 4.8 11.3 0.00 0.00 0.00 61 1008.4
20260505111005 2 339 6.4 11.3 0.00 0.00 0.00 61 1008.3
20260505110505 2 325 3.2 8.0 0.00 0.00 0.00 61 1008.3
20260505102010 3 308 4.8 17.7 0.00 0.00 0.00 61 1008.2
20260505101522 3 329 4.8 17.7 0.00 0.00 0.00 60 1008.1
20260505101003 3 346 3.2 9.7 0.00 0.00 0.00 60 1008.2
20260505100503 3 325 1.6 14.5 0.00 0.00 0.00 60 1008.1
20260505100016 3 304 6.4 14.5 0.00 0.00 0.00 60 1008.1
20260505095503 3 319 4.8 11.3 0.00 0.00 0.00 60 1008.1
20260505095006 3 327 3.2 12.9 0.00 0.00 0.00 60 1008.1
20260505094513 3 317 6.4 16.1 0.00 0.00 0.00 59 1008.1
20260505094006 3 304 3.2 16.1 0.00 0.00 0.00 59 1007.9
20260505093503 3 296 4.8 11.3 0.00 0.00 0.00 59 1007.9
20260505093023 3 320 4.8 9.7 0.00 0.00 0.00 58 1007.9
20260505092506 4 321 4.8 12.9 0.00 0.00 0.00 57 1007.8
20260505092010 4 312 1.6 12.9 0.00 0.00 0.00 58 1007.7
20260505091518 4 306 6.4 12.9 0.00 0.00 0.00 57 1007.6
20260505091008 4 343 6.4 19.3 0.00 0.00 0.00 56 1007.5
20260505090510 4 302 6.4 20.9 0.00 0.00 0.00 56 1007.6
20260505085504 4 332 8.0 16.1 0.00 0.00 0.00 55 1007.5
20260505085005 4 5 6.4 19.3 0.00 0.00 0.00 55 1007.4
20260505084507 4 278 6.4 19.3 0.00 0.00 0.00 55 1007.2
20260505084005 5 319 11.3 19.3 0.00 0.00 0.00 54 1007.1
20260505083509 5 280 3.2 24.1 0.00 0.00 0.00 54 1007.1
20260505083015 5 290 8.0 24.1 0.00 0.00 0.00 54 1007.1
20260505082504 5 300 9.7 20.9 0.00 0.00 0.00 54 1007.1
20260505082009 5 320 9.7 20.9 0.00 0.00 0.00 53 1006.9
20260505081521 5 333 8.0 17.7 0.00 0.00 0.00 53 1006.9
20260505081009 5 290 8.0 17.7 0.00 0.00 0.00 53 1006.7
20260505080506 5 299 9.7 17.7 0.00 0.00 0.00 53 1006.5
20260505080016 5 271 8.0 17.7 0.00 0.00 0.00 53 1006.5
20260505075506 5 261 8.0 19.3 0.00 0.00 0.00 53 1006.5
20260505075002 5 310 8.0 19.3 0.00 0.00 0.00 52 1006.5
20260505074504 5 305 11.3 19.3 0.00 0.00 0.00 53 1006.5
20260505074004 5 281 9.7 17.7 0.00 0.00 0.00 53 1006.4
20260505073503 5 292 9.7 17.7 0.00 0.00 0.00 54 1006.5
20260505073008 5 300 8.0 16.1 0.00 0.00 0.00 53 1006.5
20260505072505 5 297 8.0 16.1 0.00 0.00 0.00 54 1006.5
20260505072009 5 295 4.8 16.1 0.00 0.00 0.00 54 1006.5
20260505071505 5 322 4.8 19.3 0.00 0.00 0.00 54 1006.5
20260505071004 5 288 9.7 19.3 0.00 0.00 0.00 53 1006.6
20260505070509 5 303 8.0 19.3 0.00 0.00 0.00 53 1006.6
20260505070016 5 286 11.3 22.5 0.00 0.00 0.00 54 1006.6
20260505065510 5 287 11.3 22.5 0.00 0.00 0.00 54 1006.7
20260505065010 5 284 8.0 20.9 0.00 0.00 0.00 56 1006.6
20260505064518 4 308 14.5 19.3 0.00 0.00 0.00 57 1006.6
20260505064010 4 314 8.0 16.1 0.00 0.00 0.00 58 1006.7
20260505063011 4 303 4.8 12.9 0.00 0.00 0.00 60 1006.8
20260505062506 4 293 3.2 11.3 0.00 0.00 0.00 60 1006.8
20260505062004 4 284 4.8 9.7 0.00 0.00 0.00 60 1006.8
20260505061515 4 273 4.8 12.9 0.00 0.00 0.00 61 1006.9
20260505061006 4 284 6.4 12.9 0.00 0.00 0.00 61 1006.8
20260505060510 4 294 1.6 11.3 0.00 0.00 0.00 61 1006.8
20260505060010 4 282 4.8 11.3 0.00 0.00 0.00 61 1006.7
20260505055510 4 276 4.8 11.3 0.00 0.00 0.00 60 1006.8
20260505055011 4 294 4.8 14.5 0.00 0.00 0.00 61 1006.8
20260505054007 4 262 4.8 6.4 0.00 0.00 0.00 60 1006.7
20260505053510 4 265 3.2 6.4 0.00 0.00 0.00 60 1006.6
20260505053028 4 278 3.2 12.9 0.00 0.00 0.00 59 1006.6
20260505052009 5 265 4.8 11.3 0.00 0.00 0.00 59 1006.5
20260505051508 5 275 4.8 11.3 0.00 0.00 0.00 59 1006.5
20260505051006 5 271 4.8 11.3 0.00 0.00 0.00 58 1006.5
20260505050507 5 300 6.4 11.3 0.00 0.00 0.00 58 1006.5
20260505041513 5 270 4.8 11.3 0.00 0.00 0.00 54 1006.3
20260505041009 5 288 4.8 9.7 0.00 0.00 0.00 54 1006.4
20260505040506 5 252 3.2 6.4 0.00 0.00 0.00 53 1006.3
20260505040014 5 266 3.2 6.4 0.00 0.00 0.00 53 1006.3
20260505035507 5 254 3.2 9.7 0.00 0.00 0.00 52 1006.2
20260505035008 6 255 4.8 11.3 0.00 0.00 0.00 52 1006.3
20260505034505 6 267 4.8 11.3 0.00 0.00 0.00 51 1006.3
20260505034003 6 268 3.2 9.7 0.00 0.00 0.00 50 1006.4
20260505033006 6 287 3.2 6.4 0.00 0.00 0.00 49 1006.4
20260505032503 6 269 1.6 6.4 0.00 0.00 0.00 49 1006.4
20260505032005 6 279 3.2 11.3 0.00 0.00 0.00 49 1006.4
20260505031513 6 290 6.4 12.9 0.00 0.00 0.00 48 1006.4
20260505031003 6 271 4.8 12.9 0.00 0.00 0.00 47 1006.4
20260505030504 7 268 6.4 12.9 0.00 0.00 0.00 48 1006.4
20260505030006 7 290 6.4 12.9 0.00 0.00 0.00 47 1006.2
20260505025509 7 288 6.4 12.9 0.00 0.00 0.00 46 1006.2
20260505025006 7 271 4.8 9.7 0.00 0.00 0.00 45 1006.2
20260505024505 7 281 4.8 12.9 0.00 0.00 0.00 45 1006.1
20260505024003 7 287 6.4 12.9 0.00 0.00 0.00 44 1006.1
20260505023504 7 279 4.8 14.5 0.00 0.00 0.00 43 1006.0
20260505023006 8 324 6.4 16.1 0.00 0.00 0.00 1006.0
20260505022003 8 289 8.0 16.1 0.00 0.00 0.00 42 1006.0
20260505021507 8 306 8.0 17.7 0.00 0.00 0.00 42 1005.9
20260505021004 8 285 11.3 27.4 0.00 0.00 0.00 42 1005.8
20260505020504 8 317 6.4 27.4 0.00 0.00 0.00 42 1005.7
20260505020004 8 274 9.7 25.7 0.00 0.00 0.00 41 1005.7
20260505015505 8 292 8.0 30.6 0.00 0.00 0.00 41 1005.5
20260505015005 8 307 16.1 30.6 0.00 0.00 0.00 42 1005.5
20260505014510 8 284 16.1 30.6 0.00 0.00 0.00 42 1005.5
20260505014006 9 304 14.5 30.6 0.00 0.00 0.00 42 1005.2
20260505013504 9 270 14.5 24.1 0.00 0.00 0.00 42 1005.1
20260505013007 9 283 14.5 29.0 0.00 0.00 0.00 42 1005.0
20260505012505 9 300 16.1 32.2 0.00 0.00 0.00 42 1004.9
20260505011004 10 284 19.3 35.4 0.00 0.00 0.00 41 1004.6
20260505010013 10 284 19.3 32.2 0.00 0.00 0.00 40 1004.3
20260505005503 10 294 11.3 32.2 0.00 0.00 0.00 41 1004.1
20260505005004 10 279 14.5 27.4 0.00 0.00 0.00 40 1004.0
20260505004509 10 319 12.9 27.4 0.00 0.00 0.00 40 1004.0
20260505004005 11 304 12.9 25.7 0.00 0.00 0.00 40 1003.9
20260505003502 11 275 12.9 25.7 0.00 0.00 0.00 40 1003.9
20260505003005 11 345 9.7 22.5 0.00 0.00 0.00 40 1003.9
20260505002506 11 335 12.9 25.7 0.00 0.00 0.00 41 1003.8
20260505002005 11 324 8.0 25.7 0.00 0.00 0.00 40 1003.8
20260505001005 11 299 20.9 32.2 0.00 0.00 0.00 40 1003.7
20260505000503 11 298 16.1 30.6 0.00 0.00 0.00 39 1003.7
20260504235003 11 299 16.1 32.2 0.00 0.00 0.00 39 1003.5
20260504234508 11 290 22.5 35.4 0.00 0.00 0.00 40 1003.4
20260504234001 12 287 19.3 35.4 0.00 0.00 0.00 40 1003.4
20260504233503 12 315 17.7 32.2 0.00 0.00 0.00 41 1003.3
20260504233010 12 275 16.1 30.6 0.00 0.00 0.00 41 1003.2
20260504232504 12 271 20.9 30.6 0.00 0.00 0.00 39 1003.1
20260504232007 12 283 17.7 30.6 0.00 0.00 0.00 40 1003.1
20260504231509 12 316 14.5 32.2 0.00 0.00 0.00 40 1003.0
20260504231007 12 280 14.5 32.2 0.00 0.00 0.00 40 1002.9
20260504230508 13 330 17.7 37.0 0.00 0.00 0.00 41 1003.0
20260504230011 13 281 24.1 37.0 0.00 0.00 0.00 39 1002.9
20260504224003 13 284 20.9 37.0 0.00 0.00 0.00 40 1002.4
20260504223503 13 285 27.4 33.8 0.00 0.00 0.00 39 1002.2
20260504223011 13 302 20.9 38.6 0.00 0.00 0.00 38 1002.1
20260504222507 14 306 20.9 38.6 0.00 0.00 0.00 38 1002.0
20260504222007 14 302 16.1 37.0 0.00 0.00 0.00 39 1001.8
20260504221509 14 319 19.3 37.0 0.00 0.00 0.00 39 1001.7
20260504221006 15 297 17.7 33.8 0.00 0.00 0.00 37 1001.7
20260504220504 15 277 20.9 38.6 0.00 0.00 0.00 37 1001.5
20260504220008 15 288 19.3 38.6 0.00 0.00 0.00 36 1001.5
20260504215510 15 271 25.7 38.6 0.00 0.00 0.00 36 1001.4
20260504214519 15 281 24.1 43.5 0.00 0.00 0.00 37 1001.2
20260504214012 15 263 22.5 35.4 0.00 0.00 0.00 36 1001.2
20260504213503 15 292 19.3 40.2 0.00 0.00 0.00 36 1001.1
20260504213009 15 302 22.5 40.2 0.00 0.00 0.00 35 1001.1
20260504212507 15 284 22.5 38.6 0.00 0.00 0.00 35 1001.0
20260504212003 16 321 19.3 38.6 0.00 0.00 0.00 36 1001.0
20260504211512 16 261 16.1 35.4 0.00 0.00 0.00 37 1000.9
20260504211004 16 296 17.7 40.2 0.00 0.00 0.00 35 1000.8
20260504210504 16 298 24.1 40.2 0.00 0.00 0.00 34 1000.9
20260504210011 16 311 24.1 37.0 0.00 0.00 0.00 38 1000.9
20260504205504 16 290 24.1 40.2 0.00 0.00 0.00 36 1000.8
20260504205007 16 341 20.9 40.2 0.00 0.00 0.00 38 1000.6
20260504204505 16 299 29.0 40.2 0.00 0.00 0.00 38 1000.6
20260504204004 16 305 17.7 30.6 0.00 0.00 0.00 37 1000.6
20260504203503 16 263 22.5 35.4 0.00 0.00 0.00 36 1000.5
20260504203006 16 329 22.5 35.4 0.00 0.00 0.00 36 1000.6
20260504202506 16 302 16.1 40.2 0.00 0.00 0.00 39 1000.5
20260504202004 16 263 24.1 40.2 0.00 0.00 0.00 37 1000.5
20260504201507 16 279 24.1 41.8 0.00 0.00 0.00 38 1000.6
20260504201003 16 281 24.1 43.5 0.00 0.00 0.00 36 1000.6
20260504200503 17 292 32.2 49.9 0.00 0.00 0.00 36 1000.6
20260504200014 17 297 29.0 45.1 0.00 0.00 0.00 37 1000.4
20260504195504 17 275 25.7 37.0 0.00 0.00 0.00 38 1000.3
20260504195007 17 254 19.3 41.8 0.00 0.00 0.00 36 1000.3
20260504194509 16 274 22.5 41.8 0.00 0.00 0.00 35 1000.3
20260504194004 16 326 25.7 41.8 0.00 0.00 0.00 36 1000.3
20260504193509 16 280 22.5 35.4 0.00 0.00 0.00 36 1000.2
20260504193007 17 254 29.0 38.6 0.00 0.00 0.00 35 1000.0
20260504192503 17 270 27.4 46.7 0.00 0.00 0.00 35 1000.1
20260504192005 17 269 32.2 46.7 0.00 0.00 0.00 33 1000.2
20260504191505 16 304 30.6 45.1 0.00 0.00 0.00 34 1000.2
20260504191003 16 280 25.7 48.3 0.00 0.00 0.00 35 999.7
20260504190506 17 286 35.4 48.3 0.00 0.00 0.00 34 999.7
20260504190008 17 269 24.1 38.6 0.00 0.00 0.00 36 999.6
20260504185503 16 257 25.7 48.3 0.00 0.00 0.00 38 999.6
20260504185003 16 251 25.7 48.3 0.00 0.00 0.00 37 999.4
20260504184507 17 246 20.9 33.8 0.00 0.00 0.00 37 999.5
20260504184003 17 315 20.9 33.8 0.00 0.00 0.00 35 999.5
20260504183503 17 285 24.1 38.6 0.00 0.00 0.00 37 999.5
20260504183005 17 272 27.4 38.6 0.00 0.00 0.00 37 999.4
20260504182504 17 259 20.9 30.6 0.00 0.00 0.00 40 999.3
20260504182003 17 300 14.5 37.0 0.00 0.00 0.00 38 999.2
20260504181509 17 295 17.7 40.2 0.00 0.00 0.00 38 999.2
20260504181003 17 264 29.0 40.2 0.00 0.00 0.00 36 999.0
20260504180507 17 281 25.7 38.6 0.00 0.00 0.00 36 999.1
20260504180008 17 287 27.4 40.2 0.00 0.00 0.00 37 999.0
20260504175502 17 281 22.5 40.2 0.00 0.00 0.00 36 999.0
20260504175002 17 274 25.7 40.2 0.00 0.00 0.00 36 999.0
20260504174507 17 281 22.5 40.2 0.00 0.00 0.00 37 998.9
20260504174005 17 269 22.5 41.8 0.00 0.00 0.00 35 998.9
20260504173505 17 300 25.7 41.8 0.00 0.00 0.00 35 998.9
20260504173008 18 289 17.7 40.2 0.00 0.00 0.00 35 998.6
20260504172507 18 289 24.1 40.2 0.00 0.00 0.00 37 998.6
20260504172003 18 296 14.5 41.8 0.00 0.00 0.00 36 998.6
20260504171508 17 268 24.1 41.8 0.00 0.00 0.00 39 998.5
20260504171008 17 279 32.2 40.2 0.00 0.00 0.00 37 998.6
20260504170503 17 273 16.1 32.2 0.00 0.00 0.00 38 998.6
20260504151005 16 315 20.9 35.4 0.00 0.00 0.00 37 998.3
20260504150508 16 317 16.1 32.2 0.00 0.00 0.00 41 998.3
20260504141009 16 293 17.7 37.0 0.00 0.00 0.00 40 997.9
20260504140507 16 300 22.5 33.8 0.00 0.00 0.00 41 997.7